Regional Weather Roundup
Issued by NWS Huntsville, AL

Home | Current Version | Previous Version | Text Only | Print | Product List | Glossary On
Versions: 1 2 3 4 5 6 7 8 9 10 11 12 13 14 15 16 17 18 19 20 21 22 23 24 25 26 27 28 29 30 31 32 33 34 35 36 37 38 39 40 41 42 43 44 45 46 47 48 49 50
000
ASUS44 KHUN 311110
RWRHUN

WEATHER ROUNDUP FOR THE TENNESSEE VALLEY
NATIONAL WEATHER SERVICE HUNTSVILLE AL
500 AM CST SAT JAN 31 2015

ALZ001>004-311200-
NORTHWEST ALABAMA

CITY           SKY/WX    TMP DP  RH WIND       PRES   REMARKS
SHOALS AIRPORT CLOUDY    31  25  78 CALM      30.38S
$$

ALZ005>007-016-311200-
NORTH CENTRAL ALABAMA

CITY           SKY/WX    TMP DP  RH WIND       PRES   REMARKS
DECATUR AP     CLOUDY    29  24  82 CALM      30.37S
HUNTSVILLE AP  MOCLDY    30  23  75 CALM      30.36R
HUN NWS/UAH      N/A     32  20  61 NE2         N/A
MERIDIANVILLE  MOCLDY    30  21  69 CALM      30.36S
REDSTONE ARSN  CLOUDY    29  23  76 N2        30.35S
$$

ALZ008>010-311200-
NORTHEAST ALABAMA

CITY           SKY/WX    TMP DP  RH WIND       PRES   REMARKS
ALBERTVILLE    MOCLDY    32  27  80 E3        30.33R
FORT PAYNE     MOCLDY    23  19  86 CALM      30.34R
SCOTTSBORO AP  MOCLDY    27  25  93 N3        30.37R
VALLEY HEAD      N/A     23 N/A N/A MISG        N/A
$$

TNZ076-096-097-311200-
SOUTHEASTERN MIDDLE TENNESSEE

CITY           SKY/WX    TMP DP  RH WIND       PRES   REMARKS
TULLAHOMA      CLEAR     21  18  86 CALM      30.34F
WINCHESTER     CLEAR     19  18  93 CALM      30.35S
$$

...SURROUNDING SITES...

CITY           SKY/WX    TMP DP  RH WIND       PRES   REMARKS
ATLANTA        PTCLDY    30  19  63 N6        30.31S WCI  24
ANNISTON       MOCLDY    30  24  78 NE3       30.34F
BIRMINGHAM     PTCLDY    31  21  66 CALM      30.36S
CHATTANOOGA    PTCLDY    28  20  71 CALM      30.37S
CORINTH        FAIR      32  27  80 CALM      30.35F
DALTON         PTCLDY    28  21  74 CALM      30.34S
GADSDEN        CLOUDY    27  21  80 NW3       30.37R
GOLDEN TRNGL   MOCLDY    30  27  86 N3        30.35F
HALEYVILLE       N/A     28  24  85 CALM      30.36F
JACKSON TN     CLOUDY    32  23  69 CALM      30.37S
LEWISBURG      FAIR      22  18  85 CALM      30.37R
MEMPHIS        CLOUDY    39  21  48 SE5       30.36S
MURFREESBORO   FAIR      23  20  89 CALM      30.38S
NASHVILLE      PTCLDY    24  20  84 CALM      30.38S
OXFORD MS      FAIR      36  19  51 E3        30.38R
ROME           PTCLDY    25  20  81 CALM      30.34F
SAVANNAH       CLEAR     28  25  86 CALM      30.36F
TUPELO         CLOUDY    32  24  72 CALM      30.37S
TUSCALOOSA     PTCLDY    30  24  78 CALM      30.37R
$$

...GULF COAST WEATHER...

CITY           SKY/WX    TMP DP  RH WIND       PRES   REMARKS
GULFPORT       CLEAR     39  30  70 NE6       30.28F WCI  35
PASCAGOULA     CLEAR     31  29  92 CALM      30.31F
MOBILE         CLEAR     36  27  69 NE7       30.31S WCI  30
GULF SHORES    MOSUNNY   37  29  73 NE6       30.30F WCI  32
PENSACOLA      CLEAR     42  27  55 NE9       30.30S
DESTIN         CLEAR     42  28  57 NE5       30.32R
PANAMA CITY    CLEAR     42  29  61 NE8       30.32R
APPALACHICOLA  PTCLDY    40  30  67 NE6       30.30R
$$



USA.gov is the U.S. government's official web portal to all federal, state and local government web resources and services.